Barrow, AK

2:33 PM AKDT on September 27, 2016 (GMT -0800)
Nuiqsut

Weather History for PAQT - December, 2012

Change the Weather History Date:

Monday, December 24, 2012

  Actual Average (PAKU) Record (PAKU)
Temperature  
Mean Temperature -4 °F -  
Max Temperature 0 °F -1 °F 27 °F (1983)
Min Temperature -9 °F -10 °F -40 °F (1984)
Degree Days  
Heating Degree Days 70    
Moisture  
Dew Point -9 °F    
Average Humidity 89    
Maximum Humidity 92    
Minimum Humidity 84    
Precipitation  
Precipitation 0.00 in - - ()
Sea Level Pressure  
Sea Level Pressure 30.10 in    
Wind  
Wind Speed 26 mph (NE)    
Max Wind Speed 41 mph    
Max Gust Speed 44 mph    
Visibility 2 miles    
Events Fog , Snow    
Averages and records for this station are not official NWS values.
T = Trace of Precipitation, MM = Missing Value Source: NWS Daily Summary

Daily Weather History Graph

Daily Weather History Graph

Search for Another Location

Airport or City:

Trip Planner

Search our weather history database for the weather conditions in past years. The results will help you decide how hot, cold, wet, or windy it might be!

Date:

Astronomy

Dec. 31, 1969 Rise Set
Actual Time Sun does not set Sun does not set
Civil Twilight 11:03 AM AKST 3:04 PM AKST
Nautical Twilight 9:12 AM AKST 4:55 PM AKST
Astronomical Twilight 7:51 AM AKST 6:16 PM AKST
Moon 11:27 AM AKST (12/24) 8:57 AM AKST (12/24)
Length of Visible Light 4h 00m
Length of Day
0h 00m
Waxing Gibbous, 89% of the Moon is Illuminated
Dec 24
Waxing Gibbous
Dec 28
Full
Jan 4
Last Quarter
Jan 11
New
Jan 18
First Quarter

Hourly Weather History & Observations

Time (AKST) Temp. Windchill Dew Point Humidity Pressure Visibility Wind Dir Wind Speed Gust Speed Precip Events Conditions
12:30 AM -0.4 °F - -2.2 °F 92% 30.16 in 0.2 mi North - - 0.00 in Fog , Snow Light Snow
12:48 AM -0.4 °F - -2.2 °F 92% 30.15 in 0.2 mi North - - 0.00 in Fog , Snow Snow
12:53 AM -0.9 °F - -2.9 °F 91% 30.15 in 0.2 mi North - - 0.00 in Fog , Snow Snow
1:18 AM -0.4 °F -29.7 °F -2.2 °F 92% 30.15 in 0.2 mi ENE 41.4 mph - 0.00 in Fog , Snow Light Snow
1:30 AM -0.4 °F -29.1 °F -4.0 °F 85% 30.15 in 0.2 mi ENE 39.1 mph - 0.00 in Fog Light Freezing Fog
1:53 AM -2.0 °F -29.7 °F -4.0 °F 91% 30.15 in 0.2 mi ENE 33.4 mph 41.4 mph 0.00 in Fog , Snow Light Snow
2:48 AM -2.2 °F -27.6 °F -4.0 °F 92% 30.15 in 0.2 mi ENE 26.5 mph 40.3 mph 0.00 in Fog Light Freezing Fog
3:53 AM -2.9 °F -28.1 °F -5.1 °F 90% 30.14 in 0.2 mi NE 25.3 mph 35.7 mph 0.00 in Fog Light Freezing Fog
4:07 AM -2.2 °F - -5.8 °F 85% 30.13 in - North - - 0.00 in   Unknown
5:54 AM -2.9 °F -27.2 °F -6.0 °F 87% 30.11 in - ENE 23.0 mph 43.7 mph N/A   Unknown
6:18 AM -4.0 °F - -5.8 °F 92% 30.10 in 0.2 mi North - - 0.00 in Fog Light Freezing Fog
6:53 AM -4.0 °F - -6.0 °F 91% 30.10 in 0.5 mi North - - 0.00 in Fog Light Freezing Fog
7:29 AM -4.0 °F - -5.8 °F 92% 30.09 in 0.5 mi North - - N/A Fog Light Freezing Fog
7:53 AM -4.0 °F - -6.0 °F 91% 30.10 in 0.5 mi North - - N/A Fog Light Freezing Fog
8:53 AM -4.0 °F - -7.1 °F 87% 30.09 in 0.5 mi North - - N/A Fog Light Freezing Fog
9:53 AM -5.1 °F - -8.0 °F 87% 30.09 in 0.5 mi North - - N/A Fog Light Freezing Fog
10:53 AM -6.0 °F - -8.0 °F 91% 30.09 in 0.5 mi North - - N/A Fog Light Freezing Fog
11:51 AM -7.6 °F - -9.4 °F 92% 30.09 in 1.0 mi North - - N/A   Overcast
11:53 AM -7.1 °F - -9.0 °F 91% 30.09 in 1.0 mi North - - N/A   Overcast
12:19 PM -7.6 °F - -9.4 °F 92% 30.09 in 1.2 mi North - - N/A   Overcast
12:42 PM -7.6 °F -31.7 °F -11.2 °F 84% 30.09 in 1.5 mi NE 19.6 mph - N/A   Mist
12:53 PM -8.0 °F -32.8 °F -11.0 °F 86% 30.09 in 1.2 mi NE 20.7 mph 28.8 mph N/A   Mist
1:02 PM -7.6 °F -32.3 °F -11.2 °F 84% 30.09 in 1.2 mi NE 20.7 mph - N/A   Overcast
1:53 PM -8.0 °F -32.2 °F -11.0 °F 86% 30.09 in 1.8 mi NE 19.6 mph 26.5 mph N/A   Overcast
2:26 PM -7.6 °F -31.7 °F -11.2 °F 84% 30.08 in 2.0 mi NE 19.6 mph - N/A   Overcast
2:40 PM -7.6 °F -33.4 °F -11.2 °F 84% 30.08 in 3.0 mi NE 23.0 mph 26.5 mph N/A   Overcast
2:53 PM -8.0 °F -33.3 °F -11.0 °F 86% 30.09 in 3.0 mi NE 21.9 mph - N/A   Overcast
3:02 PM -7.6 °F -32.9 °F -11.2 °F 84% 30.09 in 2.0 mi NE 21.9 mph - N/A   Overcast
3:40 PM -9.4 °F -34.1 °F -11.2 °F 92% 30.08 in 3.0 mi NE 19.6 mph 27.6 mph N/A   Overcast
3:53 PM -9.0 °F -33.0 °F -11.9 °F 87% 30.09 in 4.0 mi NE 18.4 mph 27.6 mph N/A   Mostly Cloudy
4:53 PM -9.0 °F -31.7 °F -11.9 °F 87% 30.08 in 5.0 mi NE 16.1 mph 26.5 mph N/A   Overcast
5:53 PM -9.0 °F -31.7 °F -11.9 °F 87% 30.08 in 6.0 mi NE 16.1 mph - N/A   Overcast
6:53 PM -9.0 °F -31.7 °F -11.9 °F 87% 30.07 in 5.0 mi NE 16.1 mph - N/A   Overcast
7:15 PM -9.4 °F -31.4 °F -11.2 °F 92% 30.07 in 5.0 mi NE 15.0 mph - N/A   Overcast
7:53 PM -9.0 °F -31.7 °F -11.9 °F 87% 30.07 in 7.0 mi NE 16.1 mph - N/A   Mostly Cloudy
8:00 PM -9.4 °F -30.6 °F -11.2 °F 92% 30.06 in 7.0 mi NE 13.8 mph - N/A   Mostly Cloudy
8:53 PM -9.0 °F -29.3 °F -11.9 °F 87% 30.07 in 7.0 mi NE 12.7 mph - N/A   Overcast
9:53 PM -9.0 °F -29.3 °F -11.9 °F 87% 30.07 in 6.0 mi NE 12.7 mph - N/A   Overcast
10:53 PM -9.0 °F -29.3 °F -11.9 °F 87% 30.07 in 6.0 mi NE 12.7 mph - N/A   Overcast
11:53 PM -9.0 °F -27.4 °F -11.9 °F 87% 30.06 in 8.0 mi NE 10.4 mph - N/A   Overcast